Hurlburt Field, FL

1:50 AM CDT on April 27, 2018 (GMT -0500)
Hurlburt

Weather History for KHRT - February, 2013

Change the Weather History Date:

Friday, February 8, 2013

  Actual Average Record
Temperature  
Mean Temperature 58 °F -  
Max Temperature 66 °F 61 °F 71 °F (1999)
Min Temperature 49 °F 43 °F 28 °F (2004)
Degree Days  
Heating Degree Days 8    
Growing Degree Days 8 (Base 50)    
Moisture  
Dew Point 55 °F    
Average Humidity 100    
Maximum Humidity 100    
Minimum Humidity 99    
Precipitation  
Precipitation 0.01 in - - ()
Sea Level Pressure  
Sea Level Pressure 30.00 in    
Wind  
Wind Speed 5 mph (NNW)    
Max Wind Speed 12 mph    
Max Gust Speed -    
Visibility 5 miles    
Events Fog , Rain    
Averages and records for this station are not official NWS values.
T = Trace of Precipitation, MM = Missing Value Source: NWS Daily Summary

Daily Weather History Graph

Daily Weather History Graph

Search for Another Location

Airport or City:

Astronomy

Feb. 08, 2013 Rise Set
Actual Time 6:32 AM CST 5:29 PM CST
Civil Twilight 6:07 AM CST 5:54 PM CST
Nautical Twilight 5:39 AM CST 6:22 PM CST
Astronomical Twilight 5:11 AM CST 6:51 PM CST
Moon 4:57 AM CST (2/8) 4:04 PM CST (2/8)
Length of Visible Light 11h 46m
Length of Day
10h 56m
Waning Crescent, 3% of the Moon is Illuminated
Feb 8
Waning Crescent
Feb 10
New
Feb 17
First Quarter
Feb 25
Full
Mar 4
Last Quarter

Hourly Weather History & Observations

Time (CST) Temp. Dew Point Humidity Pressure Visibility Wind Dir Wind Speed Gust Speed Precip Events Conditions
12:58 AM 54.0 °F 54.0 °F 100% 29.95 in 10.0 mi North 3.5 mph - N/A   Clear
1:48 AM 51.8 °F 51.8 °F 100% 29.94 in 4.0 mi North 4.6 mph - N/A   Clear
1:53 AM 53.6 °F 53.6 °F 100% 29.94 in 2.5 mi North 4.6 mph - N/A   Clear
1:58 AM 52.9 °F 52.9 °F 100% 29.95 in 3.0 mi North 4.6 mph - N/A   Clear
2:03 AM 53.6 °F 53.6 °F 100% 29.94 in 9.0 mi North 4.6 mph - N/A   Clear
2:08 AM 51.8 °F 51.8 °F 100% 29.94 in 3.0 mi North 4.6 mph - N/A   Clear
2:13 AM 51.8 °F 51.8 °F 100% 29.94 in 1.8 mi North 4.6 mph - N/A   Clear
2:18 AM 51.8 °F 51.8 °F 100% 29.94 in 2.0 mi North 4.6 mph - N/A   Clear
2:23 AM 51.8 °F 51.8 °F 100% 29.94 in 1.2 mi North - - N/A   Clear
2:28 AM 51.8 °F 51.8 °F 100% 29.94 in 0.8 mi North 4.6 mph - N/A   Clear
2:38 AM 51.8 °F 51.8 °F 100% 29.94 in 1.5 mi North - - N/A   Clear
2:43 AM 51.8 °F 51.8 °F 100% 29.95 in 2.5 mi North 3.5 mph - N/A   Clear
2:53 AM 51.8 °F 51.8 °F 100% 29.95 in 1.8 mi North 2.3 mph - N/A   Clear
2:55 AM 51.8 °F 51.8 °F 100% 29.96 in 1.0 mi Calm Calm - N/A   Clear
2:58 AM 52.3 °F 52.3 °F 100% 29.96 in 1.8 mi North 2.3 mph - N/A   Clear
3:12 AM 51.8 °F 51.8 °F 100% 29.95 in 2.0 mi North 2.3 mph - N/A   Clear
3:18 AM 51.8 °F 51.8 °F 100% 29.95 in 3.0 mi North 3.5 mph - N/A   Clear
3:21 AM 51.8 °F 51.8 °F 100% 29.95 in 2.5 mi North 4.6 mph - N/A   Clear
3:23 AM 51.8 °F 51.8 °F 100% 29.95 in 1.5 mi North 4.6 mph - N/A   Clear
3:24 AM 51.8 °F 51.8 °F 100% 29.95 in 1.2 mi North 4.6 mph - N/A   Clear
3:26 AM 51.8 °F 51.8 °F 100% 29.95 in 1.0 mi North 4.6 mph - N/A   Clear
3:28 AM 51.8 °F 51.8 °F 100% 29.95 in 0.8 mi North 4.6 mph - N/A   Clear
3:31 AM 51.8 °F 51.8 °F 100% 29.95 in 0.5 mi North 4.6 mph - N/A Fog Fog
3:49 AM 50.0 °F 50.0 °F 100% 29.96 in 1.0 mi North 4.6 mph - N/A   Clear
3:54 AM 50.0 °F 50.0 °F 100% 29.96 in 1.5 mi North 4.6 mph - N/A   Clear
3:58 AM 50.0 °F 50.0 °F 100% 29.97 in 1.5 mi North - - N/A   Clear
4:03 AM 50.0 °F 50.0 °F 100% 29.96 in 1.8 mi North 3.5 mph - N/A   Clear
4:08 AM 50.0 °F 50.0 °F 100% 29.96 in 2.5 mi North 4.6 mph - N/A   Clear
4:13 AM 50.0 °F 50.0 °F 100% 29.96 in 2.0 mi North 4.6 mph - N/A   Clear
4:18 AM 50.0 °F 50.0 °F 100% 29.96 in 0.8 mi North 4.6 mph - N/A   Clear
4:23 AM 50.0 °F 50.0 °F 100% 29.96 in 0.5 mi North 4.6 mph - N/A Fog Fog
4:43 AM 50.0 °F 50.0 °F 100% 29.96 in 0.8 mi North 3.5 mph - N/A   Clear
4:58 AM 49.8 °F 49.8 °F 100% 29.98 in 0.8 mi North - - N/A   Clear
5:03 AM 50.0 °F 50.0 °F 100% 29.97 in 0.8 mi North 4.6 mph - N/A   Clear
5:08 AM 50.0 °F 50.0 °F 100% 29.98 in 1.0 mi North 5.8 mph - N/A   Clear
5:13 AM 50.0 °F 50.0 °F 100% 29.98 in 0.8 mi North - - N/A   Clear
5:17 AM 50.0 °F 50.0 °F 100% 29.97 in 0.8 mi North 4.6 mph - N/A   Clear
5:33 AM 50.0 °F 50.0 °F 100% 29.99 in 1.0 mi North 5.8 mph - N/A   Clear
5:48 AM 50.0 °F 50.0 °F 100% 29.99 in 1.0 mi North 5.8 mph - N/A   Clear
5:53 AM 50.0 °F 50.0 °F 100% 29.99 in 1.2 mi North 5.8 mph - N/A   Clear
5:58 AM 49.8 °F 49.8 °F 100% 30.01 in 1.2 mi North 5.8 mph - N/A   Clear
6:03 AM 50.0 °F 50.0 °F 100% 30.00 in 0.8 mi Variable 5.8 mph - N/A   Clear
6:08 AM 50.0 °F 50.0 °F 100% 30.00 in 0.8 mi North 5.8 mph - N/A   Clear
6:18 AM 50.0 °F 50.0 °F 100% 30.01 in 0.5 mi North 5.8 mph - N/A Fog Fog
6:23 AM 50.0 °F 50.0 °F 100% 30.01 in 0.2 mi North 5.8 mph - N/A Fog Fog
6:28 AM 50.0 °F 50.0 °F 100% 30.01 in 0.2 mi North - - N/A Fog Fog
6:33 AM 50.0 °F 50.0 °F 100% 30.01 in 0.8 mi North 4.6 mph - N/A   Clear
6:37 AM 50.0 °F 50.0 °F 100% 30.01 in 7.0 mi North 4.6 mph - N/A   Clear
6:58 AM 50.5 °F 50.5 °F 100% 30.02 in 10.0 mi North 4.6 mph - 0.01 in   Clear
7:35 AM 53.6 °F 53.6 °F 100% 30.03 in 10.0 mi North 4.6 mph - N/A   Scattered Clouds
7:55 AM 53.6 °F 53.6 °F 100% 30.04 in 10.0 mi North 3.5 mph - N/A   Scattered Clouds
8:58 AM 59.4 °F 59.4 °F 100% 30.06 in 10.0 mi North 3.5 mph - N/A   Clear
9:00 AM 59.0 °F 59.0 °F 100% 30.05 in 10.0 mi NNE 3.5 mph - N/A Rain Light Rain
9:58 AM 64.8 °F 64.8 °F 100% 30.07 in 10.0 mi WSW 5.8 mph - 0.00 in Rain Light Rain
10:09 AM 64.4 °F 64.4 °F 100% 30.06 in 10.0 mi South 8.1 mph - N/A   Clear
10:50 AM 66.2 °F 66.2 °F 100% 30.05 in 10.0 mi SSW 3.5 mph - N/A Rain Light Rain
10:55 AM 66.2 °F 66.2 °F 100% 30.05 in 10.0 mi South 8.1 mph - N/A   Scattered Clouds
10:58 AM 66.2 °F 66.2 °F 100% 30.06 in 10.0 mi South 8.1 mph - 0.00 in   Scattered Clouds
10:59 AM 66.2 °F 66.2 °F 100% 30.05 in 10.0 mi South 8.1 mph - N/A Rain Light Rain
11:00 AM 66.2 °F 66.2 °F 100% 30.05 in 10.0 mi SSW 6.9 mph - N/A   Scattered Clouds
11:58 AM 65.8 °F 65.8 °F 100% 30.05 in 10.0 mi SW 8.1 mph - 0.00 in   Clear
12:58 PM 64.8 °F 64.6 °F 99% 30.04 in 10.0 mi WSW 9.2 mph - N/A   Overcast
1:03 PM 64.4 °F 64.4 °F 100% 30.03 in 10.0 mi WSW 6.9 mph - N/A   Overcast
1:13 PM 66.2 °F 66.2 °F 100% 30.03 in 10.0 mi WSW 11.5 mph - N/A   Overcast
1:58 PM 65.3 °F 64.9 °F 99% 30.04 in 10.0 mi SW 10.4 mph - N/A   Overcast
2:03 PM 66.2 °F 66.2 °F 100% 30.03 in 10.0 mi WSW 10.4 mph - N/A   Overcast
2:23 PM 64.4 °F 64.4 °F 100% 30.03 in 10.0 mi West 9.2 mph - N/A   Overcast
2:33 PM 64.4 °F 64.4 °F 100% 30.03 in 10.0 mi WSW 10.4 mph - N/A   Overcast
2:58 PM 64.6 °F 64.6 °F 100% 30.04 in 10.0 mi West 9.2 mph - N/A   Overcast
3:18 PM 64.4 °F 64.4 °F 100% 30.03 in 10.0 mi West 9.2 mph - N/A   Light Drizzle
3:26 PM 64.4 °F 64.4 °F 100% 30.03 in 10.0 mi West 9.2 mph - N/A   Overcast
3:58 PM 65.7 °F 65.5 °F 99% 30.04 in 10.0 mi WSW 8.1 mph - 0.00 in   Mostly Cloudy
4:58 PM 65.1 °F 65.1 °F 100% 30.04 in 10.0 mi West 6.9 mph - N/A   Clear
5:58 PM 63.0 °F 63.0 °F 100% 30.06 in 10.0 mi West 6.9 mph - N/A   Clear
6:58 PM 61.7 °F 61.7 °F 100% 30.08 in 10.0 mi North 4.6 mph - N/A   Clear
7:58 PM 58.6 °F 58.6 °F 100% 30.10 in 10.0 mi North 9.2 mph - N/A   Clear
8:58 PM 58.8 °F 58.8 °F 100% 30.12 in 10.0 mi North 11.5 mph - N/A   Clear
9:58 PM 56.5 °F 56.5 °F 100% 30.13 in 10.0 mi NNE 8.1 mph - N/A   Clear
10:58 PM 56.1 °F 56.1 °F 100% 30.14 in 10.0 mi NNE 10.4 mph - N/A   Clear
11:54 PM 55.4 °F 55.4 °F 100% 30.14 in 10.0 mi NE 6.9 mph - N/A   Clear